Regional Weather Roundup
Issued by NWS Wakefield, VA

Home | Current Version | Previous Version | Text Only | Print | Product List | Glossary Off
Versions: 1 2 3 4 5 6 7 8 9 10 11 12 13 14 15 16 17 18 19 20 21 22 23 24 25 26 27

000
ASUS41 KAKQ 221115
RWRAKQ

REGIONAL WEATHER ROUNDUP
NATIONAL WEATHER SERVICE WAKEFIELD VA
700 AM EDT SUN APR 22 2018

Note: "fair" indicates few or no clouds below 12,000 feet with no
significant weather and/or obstructions to visibility. * = Denotes
station may not report precipitation (e.g., rain,snow,etc.),
thunder or fog.

VAZ042-051-052>054-056-221200-
NORTHERN VIRGINIA

CITY           SKY/WX    TMP DP  RH WIND       PRES   REMARKS
WASH NATIONAL  CLOUDY    49  40  71 S5        30.41R
DULLES         MOCLDY    45  39  79 SE3       30.39R
FORT BELVOIR   FAIR      42  38  84 CALM      30.40R
QUANTICO       FAIR      49  43  80 S8        30.41R
FREDERICKSBRG* FAIR      46  41  81 SE3       30.39R
STAFFORD*      FAIR      42  41  96 CALM      30.43S
WARRENTON      FAIR      41  37  83 CALM      30.38R
CULPEPER*      FAIR      40  37  89 CALM      30.39S
MANASSAS*      FAIR      40  37  89 CALM      30.39R
LEESBURG*      MOCLDY    48  39  71 NE3       30.40R
WINCHESTER     FAIR      45  32  61 NE5       30.37R
FRONT ROYAL*   CLOUDY    41  36  81 CALM      30.34S
LURAY*         FAIR      41  37  87 CALM      30.34S
$$

VAZ048-049-060>072-079>083-221200-
CENTRAL AND SOUTH CENTRAL VIRGINIA

CITY           SKY/WX    TMP DP  RH WIND       PRES   REMARKS
RICHMOND       FAIR      43  42  97 E5        30.39R
CHESTERFIELD*  FAIR      44  41  89 CALM      30.40
PETERSBURG*    FAIR      39  37  93 CALM      30.40R
HANOVER        FAIR      42  39  89 CALM      30.41R
TAPPAHANNOCK*  FAIR      41  39  94 CALM      30.41R
QUINTON*       FAIR      39  39 100 CALM      30.40R
CHARLOTTSVILLE FAIR      49  34  56 CALM      30.36R
GORDONSVILLE*  FAIR      44  43  94 CALM      30.36F
ORANGE*        FAIR      43  39  87 CALM      30.37S
LOUISA*        FAIR      41  38  91 SE5       30.41S
BUMPASS*       FAIR      43  40  91 S6        30.38S
FARMVILLE*     FAIR     N/A N/A N/A CALM      30.36R
CREWE*         FAIR      42  42 100 CALM      30.37R
FORT PICKETT*  FAIR      44  44 100 CALM      30.38R
CHASE CITY*    FAIR      43  43 100 CALM      30.37R
CLARKSVILLE*   FAIR      43  41  93 CALM      30.36S
SOUTH HILL*    FAIR      41  41 100 CALM      30.43R
LAWRENCEVILLE* FAIR      44  42  93 CALM      30.38R
EMPORIA*       FAIR      41  41 100 CALM      30.41R
$$

VAZ088>098-221200-
SOUTHEAST VIRGINIA

CITY           SKY/WX    TMP DP  RH WIND       PRES   REMARKS
NORFOLK        FAIR      48  36  63 S3        30.40R
VIRGINIA BEACH MOCLDY    42  39  89 CALM      30.40R
NORFOLK NAVAL  MOCLDY    43  36  76 CALM      30.42R
WEST POINT*    FAIR      37  35  92 CALM      30.42S
SALUDA*        FAIR      40  40 100 CALM      30.40S
NEWPORT NEWS   FAIR      40  37  89 CALM      30.41R
LANGLEY AFB    FAIR      42  40  90 CALM      30.40R
FORT EUSTIS    FAIR      45  41  87 CALM      30.38R
WILLIAMSBURG*  FAIR      46  39  76 CALM      30.41S
HR EXEC AP*    FAIR      35  35 100 CALM      30.42R
FRANKLIN*      FAIR      38  36  94 CALM      30.41R
US460-WAKEFLD  FAIR      39  38  96 CALM      30.40R
$$

VAZ020-022-025-037-045-221200-
WEST CENTRAL AND SOUTHWEST VIRGINIA

CITY           SKY/WX    TMP DP  RH WIND       PRES   REMARKS
STAUNTON*      FAIR      41  36  81 CALM      30.36R
WAYNESBORO*    FAIR      47  32  55 CALM      30.33S
HOT SPRINGS VA FAIR      46  25  45 SW7       30.32S
LYNCHBURG      FAIR      44  37  76 CALM      30.34S
DANVILLE       FAIR      40  39  97 CALM      30.36R
SOUTH BOSTON*  FAIR      40  39  95 CALM      30.36S
MARTINSVILLE   FAIR      34  33  95 CALM      30.37S
ROANOKE        MOCLDY    45  35  68 CALM      30.35R
BLACKSBURG     FAIR      42  33  69 CALM      30.35R
DUBLIN*        FAIR      40  35  82 CALM      30.33S
MARION*        FAIR      42  34  74 CALM      30.34R
HILLSVILLE*    FAIR      47  32  55 S7        30.30S
RICHLANDS*     FAIR      51  -5   9 SE3       30.29R
WISE*          FAIR      52  32  46 S7        30.29R
ABINGDON*      FAIR      48  35  61 E3        30.30R
$$

MDZ021>025-VAZ099-100-221200-
SOUTHERN MARYLAND AND THE DELMARVA PENINSULA

CITY           SKY/WX    TMP DP  RH WIND       PRES   REMARKS
PATUXENT RIVER FAIR      45  38  76 CALM      30.40R
BAY BRIDGE APT FAIR      46  41  81 E5        30.42R
LEONARDTOWN    FAIR      43  37  81 CALM      30.42R
DOVER          PTCLDY    43  38  83 CALM      30.41R
GEORGETOWN     FAIR      46  41  82 CALM      30.42S
EASTON         PTCLDY    45  41  87 CALM      30.45R
CAMBRIDGE      CLEAR     41  41 100 CALM      30.41R
SALISBURY      FAIR      38  36  92 CALM      30.41S
TANGIER        FAIR      52  45  76 S7        30.40S
OCEAN CITY     FAIR      43  41  93 N5        30.43R
WALLOPS ISLAND FAIR      44  40  85 CALM      30.42R
ACCOMACK*      FAIR      38  37  97 CALM      30.41R
$$

NCZ012>017-030>032-221200-
NORTH CENTRAL AND EASTERN NORTH CAROLINA

CITY           SKY/WX    TMP DP  RH WIND       PRES   REMARKS
ROANOKE RAPIDS FOG       36  36 100 CALM      30.39R VSB 3/4
RALEIGH        FAIR      43  40  89 CALM      30.37R
ELIZABETH CITY FAIR      43  40  89 CALM      30.40R
AHOSKIE*       FAIR      38  38 100 CALM      30.40R
EDENTON*       FAIR      42  40  89 CALM      30.40R
CURRITUCK*     NOT AVBL
KILL DEVIL HLS FAIR      45  39  78 CALM      30.39R
MANTEO         FAIR      42  36  79 CALM      30.40S
CAPE HATTERAS  FAIR      50  44  80 NE6       30.39R
TARBORO*       NOT AVBL
GOLDSBORO      FAIR      42  38  88 CALM      30.35S
WASHINGTON     FAIR      42  39  91 CALM      30.39S
GREENVILLE     FAIR      43  43 100 CALM      30.38R
NEW BERN       FAIR      42  42 100 CALM      30.39R
WILMINGTON     FAIR      47  45  93 CALM      30.34S
$$

VAZ048-221200-
ELSEWHERE

CITY           SKY/WX    TMP DP  RH WIND       PRES   REMARKS
HARRISBURG PA  FAIR      38  32  79 N3        30.42R
BALTIMORE      MOCLDY    46  40  79 E5        30.41R
ANNAPOLIS      FAIR      50  41  71 CALM      30.41R
ANDREWS AFB    FAIR      44  38  79 CALM      30.39R
PHILADELPHIA   FAIR      46  22  38 CALM      30.44R
HENDERSON NC   FAIR      40  36  87 S3        30.37R
GREENSBORO     MOCLDY    48  42  80 CALM      30.34R
ROCKY MOUNT    FAIR      41  39  93 CALM      30.38R
$$

VAZ100-221200-
MARINE

STATION/POSITION TIME  TEMP    WIND        PRES    WAVE   SWELL
                       AIR SEA DIR/SP/G            HT/PER HT/PER
                 (UTC) (F)     (DEG/KT/KT) (MB)    (FT/S) (FT/S)
BRANDYWINE LGT   1042   50     340/  6/  6 1030.3R
CAPE MAY NJ      1048   48 49   10/  2/  4 1029.5R
LEWES DE         1042   47 50  270/  4/  5 1030.1R
15NM E FENWICK I 1050   45 46  290/  6/  6 1030.8R   1/ 9
OCEAN-CITY-INLET 1048   46 49   20/  6/  8 1030.7R
WACHAPREAGUE VA  1048   44 55     CALM     1029.8R
THOMAS POINT MD  1100   49 51   70/  5/  6 1031.0R
GOOSES REEF MD   1100   50     200/  4/  6 1030.0
COVE POINT MD    1048   48     180/  6/  6 1030.0R
SOLOMONS ISLAND  1048   49 53  220/  3/  4 1029.3R
BISHOPS HEAD MD  1048   51 55  230/  6/  8 1029.9R
PINEY POINT MD   1048          220/  3/  4   N/A
POTOMAC MD       1100   50 53  230/  4/  6 1030.7    1/ 2
CAMBRIDGE MD     1048   46 54              1030.4R
LEWISETTA VA     1048   47 53  230/  4/  5 1029.3S
RAPPAHANNOCK LGT 1048          200/  5/  6 1030.2R
YORK RVR RNG VA  1048   52     190/  5/  6 1030.2R
YORKTOWN VA      1048   46 56  180/  1/  2 1029.2R
DOMINION TERM VA 1048   51     170/  4/  5 1029.9R
KIPTOPEKE VA     1042      54  220/  5/  6   N/A
CAPE HENRY VA    1048   47     180/  3/  4   N/A
WILLOUBY STN VA  1048   49     180/  6/  7 1029.6R
S CRANEY ISL VA  1048   51     140/  4/  5 1029.3R
CAPE HENRY BUOY  1100      51                N/A     1/ 6
64NM E OF VA BCH 1050   48 48  320/  4/  4 1030.3R   2/ 5   2/ 5
DUCK PIER NC     1048   51 52  110/  5/  5 1028.9R
44100 DUCK FRF   1045      50                N/A     2/ 6
44056 DUCK FRF   1100      52                N/A     2/ 6
OREGON INLET NC  1042   49 54   40/  4/  5 1028.9F
HATTERAS NC      1042   53 61   60/  4/  5 1028.7R
DIAMOND SHLS NC  1100   58 74   10/ 10/ 14 1029.1
CAPE LOOKOUT NC  1100           70/  9/  9 1028.4R
$$




USA.gov is the U.S. government's official web portal to all federal, state and local government web resources and services.